QPF
0.02 0.03 0.03 0.03 0.03 0.03 0.03 0.02 0.02 0.02 0.02 0.01 0.01 0.00 0.00 0.00 0.00 0.00 0.00 0.00 0.00 0.00 0.00 0.00 0.00 0.00 0.01 0.01 0.01 0.01 0.01 0.01 0.01 0.01 0.01 0.01 0.01 0.01 0.02 0.02 0.02 0.02 0.02
0.02 0.02 0.01 0.01 0.02 0.03 0.04 0.04 0.03 0.02 0.02 0.02 0.02 0.01 0.01 0.00 0.00 0.00 0.00 0.00 0.00 0.00 0.00 0.00 0.00 0.00 0.01 0.01 0.01 0.01 0.01 0.01 0.01 0.01 0.01 0.01 0.01 0.02 0.02 0.02 0.02 0.02 0.02
0.02 0.02 0.01 0.01 0.01 0.01 0.02 0.04 0.05 0.04 0.03 0.03 0.02 0.02 0.02 0.01 0.00 0.00 0.00 0.00 0.00 0.00 0.00 0.00 0.00 0.00 0.00 0.01 0.01 0.01 0.01 0.01 0.01 0.01 0.01 0.01 0.01 0.02 0.02 0.02 0.02 0.02 0.03
0.03 0.03 0.02 0.01 0.01 0.01 0.01 0.01 0.03 0.04 0.05 0.05 0.05 0.05 0.04 0.03 0.02 0.01 0.00 0.00 0.00 0.00 0.00 0.00 0.00 0.00 0.00 0.01 0.01 0.01 0.01 0.01 0.01 0.01 0.01 0.01 0.01 0.02 0.02 0.02 0.02 0.03 0.03
0.03 0.03 0.02 0.01 0.01 0.01 0.01 0.01 0.01 0.02 0.03 0.04 0.04 0.04 0.04 0.05 0.05 0.04 0.02 0.01 0.00 0.00 0.00 0.00 0.00 0.00 0.00 0.00 0.01 0.01 0.01 0.01 0.01 0.01 0.01 0.01 0.02 0.02 0.02 0.02 0.02 0.03 0.03
0.03 0.03 0.02 0.02 0.01 0.01 0.01 0.01 0.01 0.01 0.02 0.02 0.03 0.04 0.03 0.04 0.05 0.05 0.03 0.02 0.01 0.01 0.00 0.00 0.00 0.00 0.00 0.00 0.01 0.01 0.01 0.02 0.02 0.02 0.02 0.02 0.02 0.02 0.02 0.02 0.03 0.03 0.03
0.03 0.02 0.02 0.01 0.01 0.00 0.01 0.01 0.01 0.02 0.02 0.02 0.02 0.02 0.02 0.03 0.04 0.05 0.05 0.04 0.02 0.01 0.01 0.01 0.01 0.01 0.00 0.00 0.00 0.01 0.01 0.02 0.02 0.02 0.02 0.02 0.02 0.02 0.03 0.03 0.03 0.03 0.04
0.03 0.02 0.02 0.02 0.02 0.01 0.01 0.01 0.01 0.01 0.02 0.02 0.02 0.02 0.02 0.03 0.03 0.04 0.04 0.03 0.03 0.02 0.01 0.01 0.01 0.01 0.01 0.01 0.01 0.00 0.01 0.01 0.02 0.03 0.03 0.03 0.03 0.03 0.03 0.03 0.03 0.04 0.04
0.03 0.02 0.02 0.02 0.02 0.01 0.01 0.01 0.01 0.02 0.01 0.01 0.02 0.02 0.02 0.03 0.03 0.04 0.04 0.03 0.03 0.02 0.01 0.01 0.01 0.01 0.01 0.01 0.01 0.01 0.00 0.01 0.02 0.03 0.03 0.04 0.04 0.04 0.04 0.04 0.04 0.03 0.04
0.02 0.02 0.02 0.02 0.02 0.01 0.01 0.01 0.01 0.01 0.01 0.01 0.01 0.01 0.01 0.01 0.02 0.03 0.03 0.03 0.02 0.02 0.02 0.02 0.01 0.01 0.01 0.02 0.01 0.01 0.01 0.00 0.01 0.02 0.03 0.03 0.04 0.04 0.04 0.04 0.04 0.04 0.04
0.03 0.03 0.03 0.03 0.03 0.02 0.01 0.01 0.01 0.01 0.00 0.00 0.00 0.00 0.00 0.00 0.01 0.01 0.01 0.01 0.01 0.01 0.01 0.02 0.02 0.02 0.02 0.02 0.02 0.02 0.01 0.01 0.01 0.01 0.02 0.03 0.03 0.03 0.04 0.04 0.04 0.04 0.04
0.03 0.02 0.02 0.02 0.02 0.02 0.01 0.01 0.01 0.01 0.01 0.01 0.00 0.00 0.00 0.00 0.00 0.00 0.00 0.00 0.00 0.00 0.00 0.00 0.00 0.01 0.02 0.02 0.02 0.01 0.01 0.02 0.02 0.02 0.02 0.02 0.02 0.03 0.03 0.03 0.03 0.03 0.04
0.03 0.02 0.02 0.02 0.02 0.01 0.01 0.00 0.01 0.01 0.01 0.01 0.01 0.01 0.01 0.01 0.00 0.00 0.00 0.00 0.00 0.00 0.00 0.00 0.00 0.00 0.00 0.01 0.02 0.03 0.02 0.02 0.02 0.02 0.02 0.02 0.02 0.03 0.02 0.02 0.03 0.03 0.03
0.03 0.03 0.02 0.02 0.02 0.02 0.01 0.01 0.00 0.00 0.01 0.01 0.01 0.01 0.00 0.00 0.00 0.00 0.00 0.00 0.00 0.00 0.00 0.00 0.00 0.00 0.00 0.00 0.00 0.01 0.02 0.02 0.02 0.01 0.01 0.02 0.02 0.02 0.02 0.02 0.02 0.02 0.02
0.02 0.03 0.02 0.02 0.02 0.02 0.01 0.01 0.01 0.01 0.01 0.01 0.01 0.01 0.00 0.00 0.00 0.00 0.00 0.00 0.00 0.00 0.00 0.00 0.00 0.00 0.00 0.00 0.00 0.00 0.00 0.01 0.01 0.01 0.01 0.02 0.02 0.02 0.02 0.02 0.02 0.02 0.02
0.02 0.02 0.02 0.02 0.03 0.03 0.03 0.01 0.01 0.01 0.01 0.01 0.01 0.01 0.00 0.00 0.00 0.00 0.00 0.00 0.00 0.01 0.01 0.00 0.00 0.00 0.00 0.00 0.00 0.00 0.00 0.00 0.00 0.01 0.01 0.01 0.01 0.01 0.01 0.02 0.02 0.02 0.02
0.01 0.01 0.01 0.01 0.02 0.04 0.04 0.03 0.02 0.01 0.01 0.01 0.01 0.01 0.01 0.01 0.01 0.01 0.01 0.01 0.01 0.01 0.01 0.00 0.00 0.00 0.00 0.00 0.00 0.00 0.00 0.01 0.00 0.00 0.01 0.01 0.01 0.02 0.02 0.02 0.02 0.02 0.02
0.01 0.01 0.01 0.01 0.01 0.02 0.03 0.03 0.03 0.02 0.01 0.01 0.01 0.01 0.01 0.01 0.01 0.01 0.01 0.01 0.01 0.01 0.01 0.01 0.00 0.00 0.00 0.00 0.00 0.00 0.00 0.01 0.00 0.00 0.01 0.01 0.01 0.01 0.01 0.02 0.02 0.01 0.01
0.01 0.01 0.01 0.01 0.01 0.01 0.01 0.01 0.02 0.02 0.01 0.01 0.01 0.01 0.01 0.01 0.01 0.02 0.01 0.01 0.01 0.01 0.02 0.02 0.01 0.01 0.01 0.00 0.00 0.00 0.00 0.01 0.00 0.00 0.00 0.00 0.00 0.01 0.01 0.01 0.01 0.01 0.01
0.01 0.00 0.01 0.01 0.00 0.00 0.00 0.01 0.01 0.01 0.01 0.01 0.01 0.01 0.01 0.01 0.02 0.02 0.02 0.02 0.03 0.03 0.03 0.03 0.02 0.01 0.01 0.00 0.00 0.00 0.00 0.00 0.00 0.00 0.00 0.00 0.00 0.00 0.00 0.00 0.01 0.01 0.01
0.02 0.01 0.01 0.01 0.01 0.00 0.00 0.00 0.00 0.01 0.01 0.01 0.01 0.01 0.01 0.01 0.01 0.02 0.02 0.03 0.03 0.03 0.03 0.02 0.02 0.01 0.01 0.01 0.01 0.01 0.01 0.01 0.01 0.01 0.00 0.00 0.00 0.00 0.00 0.01 0.01 0.01 0.01
0.04 0.02 0.01 0.01 0.01 0.01 0.00 0.00 0.00 0.00 0.01 0.01 0.00 0.00 0.00 0.01 0.01 0.01 0.02 0.03 0.03 0.03 0.04 0.03 0.03 0.02 0.01 0.01 0.01 0.01 0.01 0.01 0.01 0.01 0.00 0.00 0.00 0.00 0.01 0.01 0.01 0.01 0.02
0.04 0.04 0.03 0.02 0.02 0.02 0.02 0.01 0.01 0.01 0.00 0.00 0.00 0.00 0.00 0.00 0.01 0.01 0.01 0.02 0.02 0.02 0.03 0.03 0.03 0.03 0.02 0.02 0.02 0.02 0.02 0.02 0.02 0.01 0.01 0.01 0.00 0.01 0.01 0.01 0.02 0.02 0.02
0.03 0.04 0.04 0.04 0.03 0.02 0.02 0.02 0.02 0.01 0.00 0.00 0.00 0.00 0.00 0.00 0.01 0.01 0.01 0.01 0.01 0.01 0.01 0.02 0.02 0.02 0.02 0.03 0.03 0.03 0.02 0.02 0.01 0.01 0.01 0.02 0.01 0.01 0.01 0.02 0.02 0.01 0.01
0.02 0.02 0.02 0.02 0.02 0.01 0.01 0.02 0.02 0.02 0.02 0.01 0.00 0.00 0.00 0.00 0.01 0.02 0.01 0.01 0.01 0.01 0.01 0.01 0.01 0.01 0.01 0.02 0.03 0.03 0.02 0.02 0.01 0.01 0.02 0.02 0.01 0.01 0.02 0.02 0.02 0.02 0.03
0.01 0.01 0.01 0.01 0.01 0.01 0.01 0.01 0.01 0.02 0.02 0.02 0.01 0.00 0.00 0.01 0.01 0.01 0.01 0.01 0.01 0.01 0.01 0.01 0.01 0.01 0.01 0.01 0.01 0.02 0.03 0.03 0.02 0.02 0.02 0.03 0.02 0.02 0.02 0.02 0.03 0.04 0.05
MSLP
1017.12 1017.52 1017.99 1018.52 1019.08 1019.65 1020.18 1020.64 1021.01 1021.29 1021.50 1021.66 1021.81 1021.97 1022.16 1022.37 1022.61 1022.84 1023.03 1023.15 1023.20 1023.14 1023.00 1022.80 1022.54 1022.26 1021.98 1021.70 1021.43 1021.15 1020.86 1020.53 1020.16 1019.74 1019.27 1018.74 1018.17 1017.56 1016.91 1016.23 1015.52 1014.77 1014.00
1017.01 1017.39 1017.84 1018.38 1018.96 1019.57 1020.15 1020.68 1021.13 1021.50 1021.78 1022.00 1022.20 1022.39 1022.60 1022.83 1023.06 1023.28 1023.47 1023.59 1023.62 1023.57 1023.43 1023.22 1022.96 1022.66 1022.35 1022.04 1021.73 1021.41 1021.07 1020.72 1020.32 1019.89 1019.42 1018.90 1018.35 1017.74 1017.10 1016.40 1015.66 1014.87 1014.04
1016.92 1017.28 1017.72 1018.25 1018.84 1019.47 1020.10 1020.70 1021.23 1021.67 1022.03 1022.33 1022.58 1022.80 1023.02 1023.24 1023.46 1023.66 1023.83 1023.93 1023.97 1023.92 1023.79 1023.60 1023.35 1023.07 1022.75 1022.42 1022.07 1021.71 1021.32 1020.92 1020.49 1020.04 1019.56 1019.04 1018.50 1017.90 1017.26 1016.56 1015.79 1014.96 1014.08
1016.88 1017.24 1017.66 1018.17 1018.75 1019.39 1020.05 1020.68 1021.27 1021.79 1022.22 1022.58 1022.87 1023.12 1023.35 1023.56 1023.75 1023.92 1024.06 1024.15 1024.19 1024.16 1024.07 1023.92 1023.71 1023.45 1023.15 1022.81 1022.44 1022.04 1021.61 1021.16 1020.68 1020.20 1019.69 1019.17 1018.63 1018.04 1017.40 1016.69 1015.91 1015.05 1014.13
1016.89 1017.26 1017.67 1018.16 1018.71 1019.33 1019.98 1020.63 1021.25 1021.80 1022.28 1022.69 1023.02 1023.29 1023.51 1023.71 1023.87 1024.02 1024.13 1024.22 1024.26 1024.27 1024.22 1024.13 1023.98 1023.78 1023.51 1023.19 1022.82 1022.40 1021.93 1021.43 1020.91 1020.38 1019.85 1019.31 1018.75 1018.16 1017.51 1016.80 1016.01 1015.13 1014.18
1016.92 1017.32 1017.73 1018.19 1018.71 1019.28 1019.89 1020.52 1021.13 1021.69 1022.19 1022.62 1022.98 1023.26 1023.49 1023.67 1023.82 1023.94 1024.04 1024.12 1024.18 1024.23 1024.24 1024.22 1024.15 1024.01 1023.81 1023.54 1023.18 1022.76 1022.27 1021.74 1021.18 1020.61 1020.04 1019.47 1018.89 1018.29 1017.63 1016.91 1016.11 1015.22 1014.25
1016.92 1017.36 1017.79 1018.23 1018.71 1019.22 1019.77 1020.34 1020.91 1021.46 1021.96 1022.39 1022.75 1023.05 1023.28 1023.45 1023.59 1023.70 1023.79 1023.88 1023.96 1024.05 1024.12 1024.18 1024.19 1024.14 1024.01 1023.80 1023.49 1023.09 1022.61 1022.07 1021.50 1020.90 1020.30 1019.69 1019.09 1018.46 1017.78 1017.05 1016.23 1015.33 1014.36
1016.82 1017.32 1017.78 1018.21 1018.65 1019.11 1019.59 1020.10 1020.61 1021.12 1021.59 1022.02 1022.38 1022.69 1022.92 1023.10 1023.23 1023.34 1023.43 1023.53 1023.64 1023.76 1023.89 1024.01 1024.10 1024.14 1024.10 1023.96 1023.72 1023.37 1022.93 1022.41 1021.84 1021.23 1020.61 1019.98 1019.35 1018.69 1018.00 1017.24 1016.42 1015.51 1014.53
1016.54 1017.12 1017.62 1018.07 1018.49 1018.91 1019.34 1019.78 1020.24 1020.70 1021.15 1021.56 1021.92 1022.23 1022.47 1022.66 1022.80 1022.92 1023.02 1023.12 1023.25 1023.40 1023.57 1023.74 1023.90 1024.02 1024.06 1024.01 1023.86 1023.59 1023.21 1022.74 1022.20 1021.61 1020.99 1020.34 1019.68 1019.00 1018.28 1017.51 1016.67 1015.76 1014.78
1016.05 1016.70 1017.26 1017.74 1018.18 1018.59 1018.99 1019.40 1019.82 1020.24 1020.67 1021.07 1021.43 1021.74 1022.00 1022.20 1022.35 1022.47 1022.58 1022.70 1022.84 1023.00 1023.20 1023.41 1023.62 1023.80 1023.92 1023.96 1023.90 1023.72 1023.43 1023.04 1022.55 1022.00 1021.40 1020.76 1020.09 1019.38 1018.64 1017.84 1016.99 1016.08 1015.11
1015.35 1016.05 1016.67 1017.22 1017.70 1018.13 1018.55 1018.95 1019.37 1019.78 1020.19 1020.58 1020.94 1021.26 1021.52 1021.74 1021.91 1022.04 1022.16 1022.29 1022.44 1022.62 1022.83 1023.06 1023.31 1023.54 1023.72 1023.84 1023.87 1023.79 1023.60 1023.29 1022.88 1022.39 1021.82 1021.20 1020.52 1019.80 1019.04 1018.23 1017.37 1016.45 1015.49
1014.48 1015.22 1015.90 1016.51 1017.06 1017.55 1018.01 1018.45 1018.89 1019.31 1019.72 1020.12 1020.48 1020.80 1021.07 1021.30 1021.48 1021.64 1021.77 1021.91 1022.07 1022.26 1022.48 1022.73 1023.00 1023.26 1023.50 1023.68 1023.79 1023.80 1023.71 1023.50 1023.18 1022.75 1022.23 1021.63 1020.96 1020.24 1019.46 1018.64 1017.77 1016.86 1015.90
1013.53 1014.27 1014.99 1015.66 1016.29 1016.86 1017.39 1017.90 1018.38 1018.83 1019.26 1019.66 1020.03 1020.35 1020.63 1020.87 1021.07 1021.24 1021.40 1021.56 1021.74 1021.94 1022.18 1022.44 1022.72 1023.01 1023.29 1023.52 1023.69 1023.79 1023.78 1023.65 1023.41 1023.06 1022.59 1022.03 1021.38 1020.66 1019.88 1019.05 1018.18 1017.27 1016.32
1012.60 1013.31 1014.03 1014.75 1015.44 1016.09 1016.71 1017.28 1017.82 1018.32 1018.78 1019.20 1019.57 1019.89 1020.18 1020.42 1020.64 1020.84 1021.03 1021.22 1021.43 1021.66 1021.92 1022.20 1022.50 1022.80 1023.10 1023.37 1023.60 1023.75 1023.81 1023.76 1023.59 1023.30 1022.89 1022.37 1021.74 1021.04 1020.26 1019.44 1018.57 1017.67 1016.74
1011.80 1012.43 1013.11 1013.83 1014.56 1015.27 1015.96 1016.61 1017.21 1017.76 1018.25 1018.69 1019.07 1019.40 1019.68 1019.94 1020.18 1020.41 1020.64 1020.87 1021.12 1021.39 1021.68 1021.98 1022.30 1022.63 1022.94 1023.23 1023.49 1023.68 1023.79 1023.81 1023.70 1023.47 1023.11 1022.63 1022.05 1021.37 1020.61 1019.81 1018.96 1018.08 1017.16
1011.21 1011.70 1012.30 1012.97 1013.69 1014.43 1015.17 1015.87 1016.53 1017.12 1017.65 1018.10 1018.49 1018.83 1019.13 1019.41 1019.67 1019.93 1020.21 1020.49 1020.79 1021.11 1021.43 1021.77 1022.10 1022.44 1022.77 1023.07 1023.35 1023.57 1023.72 1023.78 1023.73 1023.55 1023.25 1022.83 1022.29 1021.65 1020.93 1020.16 1019.34 1018.49 1017.60
1010.85 1011.17 1011.63 1012.20 1012.87 1013.59 1014.33 1015.06 1015.76 1016.39 1016.95 1017.43 1017.84 1018.20 1018.52 1018.81 1019.11 1019.41 1019.73 1020.06 1020.41 1020.77 1021.13 1021.50 1021.85 1022.20 1022.53 1022.85 1023.13 1023.37 1023.56 1023.66 1023.66 1023.55 1023.31 1022.95 1022.47 1021.89 1021.23 1020.50 1019.72 1018.91 1018.06
1010.71 1010.82 1011.10 1011.54 1012.10 1012.75 1013.46 1014.18 1014.89 1015.55 1016.15 1016.66 1017.11 1017.49 1017.84 1018.17 1018.50 1018.84 1019.20 1019.58 1019.96 1020.36 1020.75 1021.13 1021.50 1021.85 1022.19 1022.51 1022.81 1023.07 1023.29 1023.44 1023.50 1023.45 1023.29 1023.01 1022.61 1022.10 1021.50 1020.83 1020.11 1019.34 1018.53
1010.74 1010.63 1010.71 1010.96 1011.37 1011.92 1012.56 1013.25 1013.95 1014.63 1015.25 1015.81 1016.30 1016.74 1017.13 1017.50 1017.86 1018.24 1018.63 1019.03 1019.45 1019.86 1020.26 1020.65 1021.02 1021.38 1021.72 1022.05 1022.37 1022.66 1022.92 1023.12 1023.25 1023.29 1023.21 1023.02 1022.70 1022.28 1021.76 1021.16 1020.49 1019.78 1019.02
1010.89 1010.56 1010.41 1010.46 1010.70 1011.10 1011.64 1012.28 1012.96 1013.64 1014.30 1014.90 1015.44 1015.93 1016.38 1016.80 1017.21 1017.61 1018.03 1018.44 1018.86 1019.27 1019.67 1020.06 1020.42 1020.78 1021.12 1021.47 1021.81 1022.15 1022.46 1022.73 1022.94 1023.07 1023.09 1022.99 1022.77 1022.44 1022.00 1021.47 1020.86 1020.20 1019.49
1011.09 1010.55 1010.19 1010.03 1010.08 1010.34 1010.76 1011.31 1011.95 1012.63 1013.31 1013.95 1014.55 1015.11 1015.61 1016.09 1016.54 1016.97 1017.40 1017.82 1018.24 1018.64 1019.02 1019.39 1019.75 1020.10 1020.46 1020.82 1021.20 1021.59 1021.96 1022.31 1022.61 1022.83 1022.95 1022.95 1022.83 1022.58 1022.22 1021.76 1021.21 1020.60 1019.93
1011.31 1010.59 1010.04 1009.69 1009.56 1009.66 1009.95 1010.40 1010.98 1011.64 1012.32 1013.00 1013.66 1014.27 1014.83 1015.36 1015.86 1016.33 1016.77 1017.20 1017.60 1017.99 1018.36 1018.71 1019.06 1019.42 1019.79 1020.19 1020.61 1021.05 1021.50 1021.93 1022.32 1022.63 1022.84 1022.93 1022.89 1022.72 1022.43 1022.03 1021.53 1020.96 1020.33
1011.55 1010.70 1009.99 1009.48 1009.19 1009.12 1009.28 1009.63 1010.13 1010.73 1011.40 1012.09 1012.78 1013.43 1014.05 1014.64 1015.18 1015.68 1016.15 1016.59 1017.00 1017.39 1017.75 1018.11 1018.46 1018.83 1019.23 1019.66 1020.14 1020.64 1021.15 1021.65 1022.12 1022.51 1022.79 1022.96 1022.99 1022.88 1022.65 1022.29 1021.83 1021.30 1020.70
1011.83 1010.89 1010.08 1009.44 1009.01 1008.81 1008.83 1009.05 1009.45 1009.98 1010.60 1011.26 1011.95 1012.63 1013.29 1013.91 1014.50 1015.05 1015.56 1016.03 1016.47 1016.88 1017.26 1017.64 1018.02 1018.42 1018.86 1019.33 1019.85 1020.40 1020.97 1021.53 1022.05 1022.50 1022.84 1023.06 1023.14 1023.08 1022.89 1022.57 1022.14 1021.64 1021.07
1012.18 1011.20 1010.33 1009.61 1009.08 1008.75 1008.64 1008.74 1009.00 1009.42 1009.95 1010.56 1011.21 1011.88 1012.55 1013.20 1013.83 1014.43 1015.00 1015.53 1016.02 1016.48 1016.92 1017.35 1017.78 1018.23 1018.72 1019.24 1019.80 1020.39 1020.99 1021.59 1022.14 1022.62 1022.99 1023.25 1023.36 1023.33 1023.17 1022.88 1022.49 1022.02 1021.48
1012.59 1011.64 1010.76 1010.00 1009.40 1008.98 1008.75 1008.70 1008.82 1009.10 1009.50 1010.01 1010.58 1011.20 1011.85 1012.52 1013.19 1013.84 1014.48 1015.08 1015.66 1016.21 1016.73 1017.24 1017.75 1018.26 1018.80 1019.36 1019.95 1020.57 1021.19 1021.79 1022.35 1022.84 1023.23 1023.50 1023.64 1023.64 1023.50 1023.25 1022.90 1022.46 1021.97
Thickness
5673 5671 5669 5667 5666 5664 5663 5661 5660 5658 5657 5655 5653 5651 5649 5646 5644 5641 5637 5633 5632 5630 5629 5628 5626 5624 5623 5621 5619 5618 5616 5615 5613 5612 5610 5609 5608 5607 5606 5605 5605 5604 5604
5666 5665 5663 5661 5659 5658 5657 5655 5654 5652 5650 5648 5646 5644 5642 5640 5637 5634 5631 5628 5624 5623 5621 5620 5618 5616 5615 5613 5611 5610 5608 5607 5605 5603 5602 5600 5599 5598 5598 5597 5597 5596 5596
5659 5658 5657 5655 5652 5651 5650 5649 5647 5645 5643 5642 5640 5638 5636 5633 5630 5627 5624 5621 5619 5616 5613 5611 5610 5608 5607 5605 5603 5601 5600 5598 5596 5595 5593 5591 5590 5589 5589 5588 5588 5587 5587
5652 5651 5650 5648 5646 5644 5643 5642 5641 5639 5638 5636 5634 5632 5629 5626 5623 5621 5617 5614 5612 5609 5606 5603 5601 5599 5598 5596 5595 5593 5591 5589 5587 5586 5584 5583 5581 5580 5580 5579 5578 5577 5577
5645 5645 5642 5641 5639 5638 5636 5635 5634 5633 5631 5629 5627 5624 5622 5620 5617 5614 5611 5607 5604 5601 5599 5596 5594 5591 5589 5588 5586 5584 5582 5580 5578 5577 5575 5573 5572 5571 5570 5569 5568 5567 5566
5638 5638 5635 5634 5632 5631 5629 5628 5627 5625 5623 5621 5620 5618 5616 5613 5610 5607 5604 5601 5597 5594 5592 5589 5587 5585 5582 5579 5577 5575 5573 5571 5569 5567 5565 5564 5562 5561 5559 5558 5557 5556 5555
5630 5630 5628 5626 5625 5624 5623 5621 5619 5618 5615 5614 5614 5613 5611 5607 5604 5601 5598 5594 5591 5588 5585 5582 5580 5577 5574 5571 5568 5565 5563 5561 5559 5557 5556 5554 5553 5551 5549 5548 5546 5545 5544
5622 5621 5620 5619 5617 5616 5615 5613 5612 5610 5608 5605 5605 5607 5608 5606 5600 5595 5591 5588 5585 5582 5578 5575 5572 5568 5565 5562 5559 5555 5553 5551 5549 5547 5546 5544 5542 5540 5539 5537 5536 5534 5533
5615 5613 5612 5611 5609 5609 5608 5606 5604 5604 5602 5598 5595 5596 5598 5599 5595 5591 5586 5582 5578 5575 5572 5568 5564 5560 5556 5553 5550 5546 5543 5540 5539 5537 5535 5534 5532 5531 5529 5527 5525 5524 5522
5606 5605 5604 5603 5602 5601 5600 5598 5597 5595 5594 5592 5588 5584 5583 5582 5583 5584 5582 5576 5571 5568 5564 5561 5556 5552 5548 5544 5541 5537 5533 5531 5529 5527 5525 5524 5522 5521 5519 5517 5515 5513 5511
5598 5597 5596 5595 5594 5594 5592 5590 5588 5587 5585 5584 5582 5578 5576 5573 5572 5572 5574 5571 5566 5561 5557 5553 5548 5544 5540 5536 5532 5528 5525 5522 5519 5517 5515 5513 5512 5510 5508 5506 5504 5502 5500
5591 5590 5588 5588 5587 5586 5584 5583 5581 5579 5577 5575 5573 5571 5569 5567 5565 5563 5562 5562 5559 5556 5550 5545 5540 5535 5532 5528 5524 5520 5516 5513 5510 5508 5505 5503 5501 5499 5497 5495 5493 5491 5490
5584 5583 5581 5581 5580 5578 5576 5574 5573 5572 5569 5567 5565 5563 5561 5558 5555 5552 5551 5551 5549 5548 5544 5539 5533 5528 5523 5520 5516 5512 5509 5505 5502 5498 5496 5493 5491 5488 5486 5484 5482 5481 5479
5579 5577 5574 5573 5572 5570 5568 5566 5565 5563 5561 5559 5557 5555 5552 5549 5546 5543 5540 5538 5540 5541 5538 5533 5527 5520 5515 5511 5507 5503 5501 5497 5493 5489 5486 5483 5480 5478 5476 5474 5472 5470 5469
5570 5569 5567 5565 5563 5562 5560 5559 5557 5556 5553 5551 5549 5546 5544 5541 5537 5534 5530 5527 5525 5527 5530 5526 5519 5513 5507 5503 5499 5495 5493 5489 5485 5481 5477 5474 5471 5469 5467 5465 5463 5461 5460
5562 5560 5559 5557 5555 5553 5552 5550 5549 5547 5545 5542 5539 5537 5535 5532 5529 5525 5521 5517 5514 5512 5514 5515 5510 5504 5499 5495 5491 5487 5484 5481 5477 5473 5469 5466 5463 5460 5458 5456 5454 5453 5451
5553 5552 5550 5548 5547 5545 5543 5541 5540 5538 5536 5533 5531 5529 5526 5523 5520 5516 5512 5509 5505 5502 5503 5505 5500 5496 5491 5487 5484 5480 5476 5473 5471 5466 5462 5458 5455 5453 5451 5449 5447 5445 5443
5544 5543 5541 5540 5538 5536 5535 5533 5531 5529 5527 5525 5523 5520 5517 5514 5511 5508 5504 5501 5497 5494 5492 5494 5492 5488 5483 5479 5475 5472 5469 5466 5462 5459 5455 5452 5449 5446 5444 5442 5440 5437 5436
5534 5533 5532 5531 5530 5528 5526 5524 5522 5520 5518 5516 5514 5511 5508 5505 5503 5499 5495 5492 5489 5486 5483 5482 5482 5478 5475 5470 5468 5465 5461 5458 5455 5451 5449 5446 5443 5440 5438 5436 5433 5431 5429
5525 5524 5523 5522 5520 5518 5517 5515 5513 5511 5509 5507 5504 5502 5499 5496 5494 5490 5487 5484 5481 5478 5475 5473 5472 5470 5466 5462 5458 5457 5457 5453 5449 5446 5443 5440 5438 5435 5433 5431 5428 5426 5424
5514 5514 5513 5512 5511 5509 5508 5506 5504 5502 5500 5498 5495 5493 5489 5486 5483 5480 5478 5475 5472 5470 5467 5465 5463 5461 5458 5454 5451 5448 5446 5445 5443 5439 5437 5435 5432 5431 5429 5426 5423 5421 5419
5503 5503 5503 5502 5500 5499 5497 5496 5495 5493 5491 5489 5486 5483 5480 5477 5474 5471 5468 5466 5463 5461 5459 5456 5455 5452 5450 5446 5442 5438 5436 5435 5436 5433 5428 5429 5426 5425 5423 5421 5419 5416 5414
5492 5492 5492 5491 5490 5488 5487 5486 5485 5484 5482 5480 5477 5474 5471 5468 5465 5463 5460 5458 5456 5452 5449 5447 5446 5444 5441 5438 5434 5431 5427 5424 5423 5422 5420 5423 5421 5419 5418 5417 5414 5412 5410
5481 5481 5481 5480 5479 5478 5477 5476 5474 5473 5472 5470 5467 5465 5462 5459 5457 5455 5453 5451 5449 5446 5443 5440 5438 5436 5432 5429 5425 5422 5419 5418 5418 5416 5412 5414 5416 5414 5413 5412 5411 5408 5406
5470 5470 5469 5469 5469 5468 5466 5465 5464 5464 5462 5460 5457 5454 5452 5450 5448 5446 5445 5444 5442 5439 5435 5432 5430 5427 5425 5422 5418 5415 5414 5412 5413 5413 5408 5405 5408 5408 5409 5409 5408 5406 5404
5458 5458 5457 5457 5458 5457 5456 5455 5454 5454 5453 5451 5448 5446 5443 5441 5439 5436 5435 5434 5433 5432 5429 5427 5425 5423 5420 5417 5413 5409 5407 5405 5404 5405 5404 5399 5399 5398 5404 5407 5404 5403 5402